www.pogodaiklimat.ru

Погода и климат >> Архив погоды >> Норвегия >> Хемседал


ПОГОДА в Хемседале

  • Прогноз погоды в Хемседале
  • Монитор погоды в Хемседале

АРХИВ ПОГОДЫ в Хемседале

Время (UTC), дата Ветер
(напр.,м/с)
 
Видим.   Явления Облачность Т
(С)
Тd
(С)
f
(%)
Тe
(С)
Тes
(С)
Комфортность P
(гПа)
Po
(гПа)
Тmin
(С)
Tmax
(С)
R
(мм)
R24
(мм)
S
(см)
19 16.08 В 2
{4}
н/о н/о +12.7 +10.8 88 +12 +12 1003.7 912.8
20 16.08 В 2
{3}
н/о н/о +12.7 +10.6 87 +12 +12 1003.7 912.8
21 16.08 В 3
{5}
н/о н/о +11.8 +8.8 82 +10 +10 1004.0 912.8
22 16.08 Ю 3
{4}
н/о н/о +11.6 +6.9 73 +10 +10 1003.7 912.4
23 16.08 З 1
{4}
н/о н/о +11.0 +7.5 79 +11 +11 1003.6 912.2
00 17.08 В 3
{5}
н/о н/о +10.4 +7.1 80 +8 +8 1003.4 911.8
01 17.08 В 4
{6}
н/о н/о +11.1 +5.9 70 +9 +9 1002.5 911.3
02 17.08 В 5
{6}
н/о н/о +10.0 +6.9 81 +7 +7 1002.4 910.8
03 17.08 ЮВ 6
{11}
н/о н/о +10.5 +6.7 77 +7 +7 1001.9 910.5
04 17.08 В 7
{9}
н/о н/о +8.7 +7.6 93 +4 +4 1001.9 910.0
05 17.08 В 6
{9}
н/о н/о +8.8 +8.5 98 +5 +5 1001.5 909.6
06 17.08 В 9
{12}
н/о н/о +8.5 +8.2 98 +3 +3 1001.0 909.1 +8.5 +13.4
07 17.08 В 9
{13}
н/о н/о +8.5 +8.2 98 +3 +3 1000.1 908.3
08 17.08 В 6
{11}
н/о н/о +8.5 +8.2 98 +4 +4 999.4 907.6
09 17.08 ЮВ 6
{9}
н/о н/о +8.9 +8.6 98 +5 +5 998.6 907.0
10 17.08 В 5
{8}
н/о н/о +9.5 +9.2 98 +6 +6 997.6 906.3
11 17.08 В 7
{11}
н/о н/о +10.3 +10.0 98 +6 +6 996.8 905.8
12 17.08 В 8
{13}
н/о н/о +11.0 +10.7 98 +7 +7 996.0 905.3
13 17.08 ЮВ 5
{10}
н/о н/о +11.0 +10.7 98 +8 +8 995.6 904.9
14 17.08 В 7
{12}
н/о н/о +11.5 +11.2 98 +8 +8 994.8 904.4
15 17.08 В 4
{11}
н/о н/о +12.4 +12.1 98 +10 +10 994.8 904.6
16 17.08 В 4
{6}
н/о н/о +12.4 +12.1 98 +10 +10 994.6 904.4
17 17.08 СЗ 3
{13}
н/о н/о +12.9 +8.6 75 +12 +12 995.1 905.0
18 17.08 В 3
{13}
н/о н/о +12.1 +10.4 89 +10 +10 995.5 905.2 +8.4 +13.1
19 17.08 В 3
{5}
н/о н/о +11.0 +10.7 98 +9 +9 996.0 905.3
20 17.08 В 4
{7}
н/о н/о +10.3 +10.0 98 +7 +7 996.8 905.8
21 17.08 В 5
{7}
н/о н/о +9.6 +9.3 98 +6 +6 997.2 906.0
22 17.08 В 3
{7}
н/о н/о +9.6 +9.3 98 +7 +7 997.6 906.3
23 17.08 ЮВ 2
{4}
н/о н/о +9.3 +9.0 98 +7 +7 998.1 906.7
00 18.08 В 2
{7}
н/о н/о +9.2 +8.6 96 +7 +7 998.7 907.2
01 18.08 СЗ 3
{5}
н/о н/о +8.8 +6.6 86 +6 +6 999.1 907.5
02 18.08 СЗ 3
{6}
н/о н/о +8.3 +4.3 76 +6 +6 999.8 907.9
03 18.08 СЗ 5
{7}
н/о н/о +7.0 +4.0 81 +3 +3 1000.1 907.8
04 18.08 В 2
{7}
н/о н/о +5.6 +4.7 94 +3 +3 1001.2 908.3
05 18.08 ЮЗ 1
{3}
н/о н/о +5.8 +5.2 96 +4 +4 1001.3 908.5
06 18.08 ЮВ 1
{7}
н/о н/о +7.3 +6.1 92 +6 +6 1001.0 908.7 +5.4 +12.1
07 18.08 В 3
{5}
н/о н/о +8.8 +6.9 88 +6 +6 1000.7 908.9
08 18.08 В 3
{5}
н/о н/о +8.4 +6.5 88 +6 +6 1001.1 909.1
09 18.08 ЮВ 2
{3}
н/о н/о +10.0 +7.9 87 +8 +8 1000.6 909.1
10 18.08 В 4
{5}
н/о н/о +11.9 +5.8 66 +10 +10 1000.0 909.2
11 18.08 Ю 3
{7}
н/о н/о +13.4 +3.8 52 +12 +12 999.3 909.0
12 18.08 Ю 4
{8}
н/о н/о +11.3 +4.8 64 +9 +9 1000.2 909.2
13 18.08 В 8
{11}
н/о н/о +14.6 +6.7 59 +12 +12 998.7 908.8
14 18.08 В 6
{11}
н/о н/о +13.8 +6.4 61 +12 +12 998.7 908.6
15 18.08 ЮВ 9
{11}
н/о н/о +12.0 +6.5 69 +9 +9 998.9 908.3
16 18.08 В 5
{11}
н/о н/о +11.3 +8.4 82 +9 +9 999.1 908.2
17 18.08 В 7
{8}
н/о н/о +11.4 +7.7 78 +8 +8 998.7 907.9
18 18.08 ЮВ 6
{11}
н/о н/о +10.6 +6.6 76 +7 +7 999.0 907.9 +6.6 +14.8
19 18.08 В 5
{7}
н/о н/о +9.9 +6.8 81 +7 +7 999.3 908.0
20 18.08 В 5
{7}
н/о н/о +9.2 +6.8 85 +6 +6 999.6 908.0
21 18.08 В 4
{7}
н/о н/о +8.5 +6.8 89 +5 +5 999.7 907.9
22 18.08 В 3
{7}
н/о н/о +8.2 +7.0 92 +5 +5 999.6 907.7
23 18.08 В 4
{6}
н/о н/о +8.2 +7.0 92 +5 +5 999.6 907.7
00 19.08 В 5
{7}
н/о н/о +7.7 +7.3 97 +4 +4 999.5 907.4
01 19.08 В 4
{6}
н/о н/о +7.6 +7.3 98 +4 +4 999.2 907.2
02 19.08 В 5
{6}
н/о н/о +7.5 +7.2 98 +3 +3 999.1 907.0
03 19.08 В 3
{6}
н/о н/о +7.4 +7.1 98 +4 +4 999.1 907.0
04 19.08 В 5
{7}
н/о н/о +7.0 +6.7 98 +3 +3 999.3 907.1
05 19.08 В 5
{6}
н/о н/о +6.8 +6.5 98 +2 +2 999.4 907.1
06 19.08 В 4
{8}
н/о н/о +7.0 +6.7 98 +3 +3 999.7 907.4 +6.7 +10.6
07 19.08 В 5
{7}
н/о н/о +7.3 +7.0 98 +3 +3 999.7 907.6
08 19.08 В 5
{7}
н/о н/о +8.3 +8.0 98 +4 +4 999.4 907.6
09 19.08 В 4
{8}
н/о н/о +10.2 +9.0 92 +7 +7 998.8 907.6
10 19.08 ЮВ 2
{6}
н/о н/о +9.6 +9.2 97 +8 +8 999.3 907.9
11 19.08 СЗ 2
{15}
н/о н/о +9.6 +6.9 83 +8 +8 1000.4 908.9
12 19.08 С 1
{15}
н/о н/о +13.9 +7.7 66 +14 +14 999.0 908.9
13 19.08 СЗ 1
{4}
н/о н/о +12.6 +7.1 69 +13 +13 1000.1 909.5
14 19.08 СЗ 2
{7}
н/о н/о +14.7 +7.0 60 +15 +15 999.8 909.9
15 19.08 З 3
{9}
н/о н/о +12.6 +5.3 61 +11 +11 1001.2 910.5
16 19.08 З 5
{9}
н/о н/о +12.3 +5.0 61 +10 +10 1001.8 911.0
17 19.08 З 5
{11}
н/о н/о +11.9 +4.4 60 +10 +10 1002.6 911.6
18 19.08 З 2
{11}
н/о н/о +11.2 +4.7 64 +10 +10 1003.2 911.9 +7.0 +16.0
19 19.08 ЮЗ 4
{6}
н/о н/о +10.6 +4.7 67 +8 +8 1004.4 912.8
20 19.08 СЗ 3
{9}
н/о н/о +10.0 +4.0 66 +8 +8 1005.0 913.2
21 19.08 З 4
{8}
н/о н/о +10.1 +4.5 68 +8 +8 1005.4 913.6
22 19.08 З 3
{6}
н/о н/о +9.5 +3.9 68 +7 +7 1005.8 913.8
23 19.08 В 1
{5}
н/о н/о +8.1 +4.9 80 +7 +7 1006.5 914.0
00 20.08 В 2
{9}
н/о н/о +7.5 +5.0 84 +5 +5 1007.2 914.4
01 20.08 В 4
{5}
н/о н/о +7.0 +5.2 88 +3 +3 1007.6 914.6
02 20.08 В 3
{5}
н/о н/о +6.4 +5.0 91 +3 +3 1008.0 914.8
03 20.08 В 2
{4}
н/о н/о +6.4 +5.2 92 +4 +4 1008.4 915.1
04 20.08 В 2
{3}
н/о н/о +6.3 +5.1 92 +4 +4 1008.7 915.4
05 20.08 СЗ 2
{3}
н/о н/о +6.4 +5.2 92 +4 +4 1008.8 915.5
06 20.08 В 3
{5}
н/о н/о +8.7 +6.0 83 +6 +6 1008.3 915.8 +6.1 +11.4
07 20.08 В 2
{5}
н/о н/о +9.1 +6.0 81 +7 +7 1008.8 916.3
08 20.08 Ю 1
{6}
н/о н/о +10.2 +5.0 70 +10 +10 1009.0 916.8
09 20.08 СЗ 2
{5}
н/о н/о +12.3 +6.2 66 +12 +12 1008.5 917.0
10 20.08 З 3
{10}
н/о н/о +13.7 +5.9 59 +13 +13 1008.5 917.4
11 20.08 З 3
{10}
н/о н/о +14.1 +5.2 55 +13 +13 1008.6 917.6
12 20.08 З 4
{10}
н/о н/о +13.9 +4.8 54 +13 +13 1008.8 917.8
13 20.08 З 4
{9}
н/о н/о +13.8 +4.4 53 +13 +13 1009.4 918.3
14 20.08 СЗ 4
{8}
н/о н/о +13.5 +5.7 59 +12 +12 1009.6 918.4
15 20.08 З 6
{9}
н/о н/о +13.9 +4.8 54 +12 +12 1009.8 918.7
16 20.08 З 6
{11}
н/о н/о +13.2 +4.6 56 +11 +11 1010.7 919.3
17 20.08 З 5
{12}
н/о н/о +12.8 +4.5 57 +11 +11 1011.1 919.6
18 20.08 З 4
{12}
н/о н/о +11.6 +5.0 64 +10 +10 1012.3 920.3 +7.5 +15.3
19 20.08 З 4
{8}
н/о н/о +10.1 +5.1 71 +8 +8 1013.9 921.3
20 20.08 З 5
{7}
н/о н/о +9.8 +5.2 73 +7 +7 1014.7 921.9
21 20.08 З 4
{7}
н/о н/о +8.8 +5.2 78 +6 +6 1015.7 922.5
22 20.08 З 4
{7}
н/о н/о +8.4 +3.7 72 +5 +5 1016.1 922.8
23 20.08 З 5
{7}
н/о н/о +7.7 +1.8 66 +4 +4 1016.5 922.9
00 21.08 З 5
{8}
н/о н/о +7.0 +2.7 74 +3 +3 1017.1 923.2
01 21.08 З 5
{6}
н/о н/о +6.9 +3.2 77 +3 +3 1017.5 923.6
02 21.08 З 5
{7}
н/о н/о +7.2 +3.3 76 +3 +3 1017.8 924.0
03 21.08 СЗ 4
{6}
н/о н/о +7.1 +3.4 77 +4 +4 1018.4 924.4
04 21.08 СЗ 3
{6}
н/о н/о +7.3 +2.6 72 +5 +5 1018.9 925.0
05 21.08 СЗ 4
{5}
н/о н/о +7.4 +2.3 70 +4 +4 1019.2 925.3
06 21.08 СЗ 3
{7}
н/о н/о +8.4 +2.7 67 +6 +6 1019.4 925.7 +6.6 +11.6
07 21.08 СЗ 3
{5}
н/о н/о +8.9 +2.5 64 +7 +7 1019.5 926.0
08 21.08 СЗ 3
{8}
н/о н/о +9.9 +1.6 56 +8 +8 1019.6 926.4
09 21.08 З 4
{8}
н/о н/о +11.0 +1.8 53 +9 +9 1019.4 926.5
10 21.08 СЗ 3
{8}
н/о н/о +12.6 +2.8 51 +11 +11 1018.9 926.6
11 21.08 СЗ 3
{7}
н/о н/о +12.7 +3.1 52 +12 +12 1019.1 926.8
12 21.08 СЗ 3
{8}
н/о н/о +13.9 +3.4 49 +13 +13 1018.7 926.8
13 21.08 СЗ 4
{8}
н/о н/о +14.1 +3.3 48 +13 +13 1018.7 926.9
14 21.08 СЗ 4
{7}
н/о н/о +13.3 +3.4 51 +12 +12 1019.2 927.1
15 21.08 СЗ 4
{8}
н/о н/о +14.2 +3.4 48 +13 +13 1018.9 927.1
16 21.08 СЗ 4
{7}
н/о н/о +13.7 +2.6 47 +12 +12 1019.1 927.1
17 21.08 З 4
{7}
н/о н/о +12.6 +3.0 52 +11 +11 1019.5 927.1
18 21.08 СЗ 4
{8}
н/о н/о +11.0 +3.3 59 +9 +9 1020.0 927.1 +8.4 +14.7
19 21.08 СЗ 5
{7}
н/о н/о +8.8 +3.0 67 +6 +6 1021.0 927.3
20 21.08 СЗ 4
{7}
н/о н/о +8.3 +2.6 67 +5 +5 1021.4 927.5
21 21.08 СЗ 5
{7}
н/о н/о +6.9 +2.8 75 +3 +3 1022.0 927.7
22 21.08 СЗ 5
{6}
н/о н/о +5.8 +2.5 79 +1 +1 1022.2 927.5
23 21.08 СЗ 5
{6}
н/о н/о +4.4 +2.1 85 -1 -1 1022.7 927.5
00 22.08 СЗ 4
{7}
н/о н/о +3.9 +1.8 86 -1 -1 1022.8 927.4
01 22.08 СЗ 5
{7}
н/о н/о +3.2 +1.7 90 -2 -2 1022.9 927.3
02 22.08 СЗ 4
{6}
н/о н/о +3.1 +1.5 89 -2 -2 1022.7 927.1
03 22.08 СЗ 3
{5}
н/о н/о +3.2 +1.6 89 -1 -1 1022.3 926.7
04 22.08 С 1
{3}
н/о н/о +3.2 +1.7 90 +2 +2 1021.7 926.2
05 22.08 СВ 1
{2}
н/о н/о +3.3 +2.4 94 +2 +2 1021.6 926.1
06 22.08 СЗ 2
{7}
н/о н/о +3.5 +2.3 92 0 0 1021.2 925.8 +2.7 +11.0
07 22.08 ЮВ 1
{2}
н/о н/о +4.4 +3.8 96 +3 +3 1020.5 925.5
08 22.08 В 2
{4}
н/о н/о +4.6 +3.9 95 +2 +2 1019.9 925.0
09 22.08 В 4
{5}
н/о н/о +5.4 +5.1 98 +1 +1 1018.8 924.3
10 22.08 В 4
{6}
н/о н/о +6.2 +5.8 97 +2 +2 1018.0 923.8
11 22.08 В 5
{8}
н/о н/о +6.1 +5.8 98 +2 +2 1017.2 923.0
12 22.08 В 6
{9}
н/о н/о +6.6 +6.3 98 +2 +2 1016.4 922.5
13 22.08 В 3
{8}
н/о н/о +6.8 +6.5 98 +4 +4 1016.1 922.3
14 22.08 В 2
{4}
н/о н/о +8.8 +8.5 98 +7 +7 1015.1 922.0
15 22.08 ЮВ 1
{3}
н/о н/о +9.6 +8.5 93 +9 +9 1014.4 921.6
16 22.08 В 4
{4}
н/о н/о +9.5 +7.8 89 +7 +7 1013.8 921.0
17 22.08 ЮВ 2
{4}
н/о н/о +10.6 +7.8 83 +9 +9 1012.9 920.6
18 22.08 З 4
{8}
н/о н/о +11.0 +3.3 59 +9 +9 1013.3 921.0 +3.5 +11.9
19 22.08 СВ 1
{7}
н/о н/о +9.7 +4.9 72 +9 +9 1014.3 921.5
20 22.08 В 1
{4}
н/о н/о +8.9 +4.3 73 +8 +8 1014.7 921.6
21 22.08 ЮЗ 2
{5}
н/о н/о +9.3 +2.0 60 +8 +8 1014.9 921.9
22 22.08 В 1
{6}
н/о н/о +7.7 +4.3 79 +7 +7 1014.9 921.6
23 22.08 В 4
{5}
н/о н/о +5.8 +4.3 90 +2 +2 1015.3 921.2
00 23.08 В 4
{7}
н/о н/о +5.9 +3.9 87 +2 +2 1015.5 921.4
01 23.08 В 3
{4}
н/о н/о +5.2 +4.3 94 +2 +2 1015.0 920.8
02 23.08 СВ 1
{5}
н/о н/о +5.4 +4.5 94 +4 +4 1014.4 920.3
03 23.08 ЮЗ 1
{4}
н/о н/о +5.4 +4.7 95 +4 +4 1014.5 920.4
04 23.08 З 2
{3}
н/о н/о +5.0 +4.7 98 +2 +2 1015.0 920.7
05 23.08 СЗ 1
{3}
н/о н/о +5.4 +5.1 98 +4 +4 1014.7 920.5
06 23.08 СВ 1
{5}
н/о н/о +6.7 +6.4 98 +5 +5 1014.2 920.5 +4.8 +11.1
07 23.08 СЗ 1
{4}
н/о н/о +7.0 +6.7 98 +6 +6 1014.4 920.8
08 23.08 З 5
{7}
н/о н/о +9.5 +6.1 79 +6 +6 1013.6 920.8
09 23.08 З 4
{12}
н/о н/о +12.2 +6.5 68 +10 +10 1013.2 921.3
10 23.08 З 6
{11}
н/о н/о +12.4 +4.1 57 +10 +10 1013.7 921.8
11 23.08 З 9
{15}
н/о н/о +12.0 +4.3 59 +9 +9 1014.3 922.2
12 23.08 З 6
{15}
н/о н/о +12.6 +4.6 58 +10 +10 1015.4 923.4
13 23.08 З 5
{11}
н/о н/о +12.6 +4.8 59 +11 +11 1016.4 924.3
14 23.08 З 4
{9}
н/о н/о +12.9 +5.1 59 +11 +11 1017.2 925.1
15 23.08 З 2
{13}
н/о н/о +13.0 +5.4 60 +12 +12 1017.4 925.4
16 23.08 ЮЗ 4
{7}
н/о н/о +12.5 +5.2 61 +11 +11 1017.8 925.6
17 23.08 З 6
{8}
н/о н/о +12.2 +5.2 62 +10 +10 1018.3 925.9

 

Местоположение метеостанции Хемседал (Норвегия): широта 60.87 долгота 8.52 высота над уровнем моря 807 м.

В архиве по умолчанию представлена погода в Хемседале за последнюю неделю. Архивные данные за месяц целиком и за предыдущие месяцы, начиная с января 2011 года, Вы можете получить, выбрав интересующий диапазон дат из раскрывающегося списка и нажав кнопку "Ввод!".


*Определитесь, кто Вы:
робот инопланетянин человек

Внимание! Время в таблицах - всемирное. Для получения местного времени необходимо прибавить поправку, которая равна 1 ч.

Смотрите также архив погоды в соседних городах и на ближайших метеорологических станциях:

Погода в Хемседале II (Норвегия) (4 км)
Погода в Локен и Волбу (Норвегия) (40 км)
Погода в Филефеле (Норвегия) (41 км)
Погода в Фагернесе (Норвегия) (41 км)
Погода в Гейло (Норвегия) (42 км)
Погода в Фагернес аэропорту (Норвегия) (45 км)
Погода в Несбен-Тодокке (Норвегия) (47 км)
Погода в Бейтостолене (Норвегия) (47 км)
Погода в Гейло аэропорту (Норвегия) (50 км)
Погода в Лардале (Норвегия) (61 км)

Пояснения к столбцам:

Ветер - указаны скорость ветра в м/с - средняя за 10 мин, порывы в срок и между сроками (в фигурных скобках) и направление, откуда дует ветер: С - северный, СВ - северо-восточный, В - восточный, ЮВ - юго-восточный, Ю - южный, ЮЗ - юго-западный, З - западный, СЗ - северо-западный.
Видимость - горизонтальная дальность видимости в метрах или километрах. При видимости от 1 до 10 км при отсутствии осадков обычно наблюдается дымка, при ухудшении видимости до 1 км и менее - туман. В сухую погоду видимость может ухудшаться дымом, пылью или мглою.
Явления - указаны атмосферные явления, наблюдавшиеся в срок или в последний час перед сроком; фигурными скобками обозначены явления, наблюдавшиеся между сроками (за 1-3 часа до срока); квадратными скобками обозначены град или гололедные отложения с указанием их диаметра в мм.
Облачность - указаны через наклонную черту общая и нижняя облачность в баллах и высота нижней границы облаков в метрах; квадратными скобками обозначены формы облаков: Ci - перистые, Cs - перисто-слоистые, Cc - перисто-кучевые, Ac - высококучевые, As - высокослоистые, Sc - слоисто-кучевые, Ns - слоисто-дождевые, Cu - кучевые, Cb - кучево-дождевые. Подробнее классификацию облаков см. в Атласе облаков (PDF).
T - Температура воздуха - температура, измеренная на высоте 2 м над землей.
Td - Температура точки росы - температура, при понижении до которой содержащийся в воздухе водяной пар достигнет насыщения.
f - Относительная влажность воздуха - влажноcть воздуха, измеренная на высоте 2 м над землей.
Te - Эффективная температура - температура, которую ощущает одетый по сезону человек в тени. Характеристика душности погоды. При расчете учитывается влияние влажности воздуха и скорости ветра на теплоощущения человека.
Tes - Эффективная температура на солнце - температура, которую ощущает человек, с поправкой на солнечный нагрев. Характеристика знойности погоды. Зависит от высоты солнца над горизонтом, облачности и скорости ветра. Ночью, в пасмурную погоду, а также при ветре 12 м/с и более поправка равна нулю.
P - Атмосферное давление - приведенное к уровню моря атмосферное давление.
Po - Атмосферное давление - измеренное на уровне метеостанции атмосферное давление.
Tmin - Минимальная температура - минимум температуры воздуха на высоте 2 м над землей.
Tmax - Максимальная температура - максимум температуры воздуха на высоте 2 м над землей.
R - Количество осадков - Количество выпавших осадков за период времени, мм. При наведении курсора мыши на число - период времени, за который выпало указанное количество осадков.
R24 - Количество осадков - Количество выпавших осадков за 24 часа, мм.
S - Снежный покров - Высота снежного покрова, см. При наведении курсора мыши на число - состояние снежного покрова и степень покрытия местности в баллах.